Location: Walnut Point State Park
(39.6958°N, 88.0345°W)
Time: 01:18:00
(UTC-05:00)

Amateur Radio Satellites - All Passes

Search period start: 25 October 2014 00:47
Search period end: 26 October 2014 00:47
Location: Walnut Point State Park, 39.6958°N, 88.0345°W

Satellite Date Start Highest point End Downlink Frequencies (MHz)
Time Altitude Azimuth
JAS-1B 25 Oct 00:56:20 00:59:29 13° 91° (E) 01:02:49 435.800 - 435.900 CW/SSB
RS-15 25 Oct 01:03:31 01:12:41 30° 327° (NNW) 01:21:56 29.354 - 29.394 USB, Beacon 29.352 USB
Oscar 16 25 Oct 01:05:10 01:06:48 11° 89° (E) 01:08:27 437.025 USB, Beacon 2401.1428
Oscar 10/S400 25 Oct 01:24:16 02:23:49 20° 244° (WSW) 04:38:34 145.825 - 145.975 CW/USB, Beacon 145.810 USB
Oscar 19 25 Oct 01:56:01 02:00:46 38° 98° (E) 02:05:30 437.125 CW, 437.150 USB
AO-27 25 Oct 02:14:32 02:18:39 23° 94° (E) 02:22:44 436.795 MHz FM
AO-Echo 25 Oct 02:35:37 02:40:48 50° 99° (E) 02:45:55 ?
Oscar 16 25 Oct 02:41:35 02:46:42 77° 285° (WNW) 02:51:48 437.025 USB, Beacon 2401.1428
Sapphire 25 Oct 02:43:43 02:46:46 15° 104° (ESE) 02:49:50 437.095 MHz 1200 baud AX-25 AFSK
JAS-1B 25 Oct 02:43:49 02:50:34 84° 104° (ESE) 02:58:42 435.800 - 435.900 CW/SSB
Uribyol 2 25 Oct 03:01:22 03:06:35 69° 102° (ESE) 03:11:44 436.500 FM
PCSat 25 Oct 03:04:35 03:09:02 27° 108° (ESE) 03:13:31 145.825 MHz
ITAMSAT 1 25 Oct 03:07:25 03:12:40 74° 103° (ESE) 03:17:52 435.822 SSB
RS-15 25 Oct 03:23:24 03:30:17 18° 3° (N) 03:37:15 29.354 - 29.394 USB, Beacon 29.352 USB
Gurwin Techsat 1B 25 Oct 03:28:11 03:33:27 61° 101° (E) 03:38:42 435.225 FM
OPAL 25 Oct 03:33:32 03:34:38 11° 57° (ENE) 03:35:43 ?
Oscar 19 25 Oct 03:35:47 03:39:54 25° 294° (WNW) 03:44:01 437.125 CW, 437.150 USB
TMSAT-1 25 Oct 03:39:19 03:44:34 57° 101° (E) 03:49:45 436.925 FM
AO-27 25 Oct 03:53:24 03:58:18 41° 290° (WNW) 04:03:09 436.795 MHz FM
AO-Echo 25 Oct 04:15:15 04:19:10 21° 295° (WNW) 04:23:05 ?
AO-7 25 Oct 04:20:10 04:27:30 33° 97° (E) 04:34:47 29.400 - 29.500 MHz
Uosat F 25 Oct 04:21:42 04:25:21 20° 93° (E) 04:28:57 435.120 FM
Sapphire 25 Oct 04:24:11 04:29:33 68° 300° (WNW) 04:34:59 437.095 MHz 1200 baud AX-25 AFSK
JAS-1B 25 Oct 04:36:24 04:40:39 18° 299° (WNW) 04:45:20 435.800 - 435.900 CW/SSB
Uribyol 2 25 Oct 04:42:32 04:45:27 15° 299° (WNW) 04:48:21 436.500 FM
PCSat 25 Oct 04:47:07 04:52:13 41° 305° (NW) 04:57:21 145.825 MHz
ITAMSAT 1 25 Oct 04:48:47 04:51:30 14° 299° (WNW) 04:54:13 435.822 SSB
OPAL 25 Oct 05:07:32 05:12:42 82° 73° (ENE) 05:17:49 ?
Gurwin Techsat 1B 25 Oct 05:09:30 05:12:54 18° 298° (WNW) 05:16:18 435.225 FM
STRAND 1 25 Oct 05:18:10 05:19:17 11° 58° (ENE) 05:20:24 ?
TMSAT-1 25 Oct 05:20:27 05:24:00 19° 297° (WNW) 05:27:33 436.925 FM
RS-15 25 Oct 05:37:47 05:47:34 34° 37° (NE) 05:57:37 29.354 - 29.394 USB, Beacon 29.352 USB
JAS-2 25 Oct 05:56:07 06:03:42 51° 98° (E) 06:11:12 435.800 - 435.900 CW/SSB, 435.910 FM
Uosat F 25 Oct 05:59:31 06:04:20 46° 289° (WNW) 06:09:07 435.120 FM
Sapphire 25 Oct 06:11:51 06:14:01 12° 320° (NW) 06:16:11 437.095 MHz 1200 baud AX-25 AFSK
AO-7 25 Oct 06:12:30 06:20:30 54° 295° (WNW) 06:28:31 29.400 - 29.500 MHz
OPAL 25 Oct 06:50:51 06:52:07 11° 268° (W) 06:53:23 ?
STRAND 1 25 Oct 06:52:30 06:57:38 85° 75° (ENE) 07:02:49 ?
Hamsat 25 Oct 06:58:48 07:02:58 64° 285° (WNW) 07:07:08 145.90 MHz
JAS-2 25 Oct 07:41:32 07:48:22 36° 295° (WNW) 07:55:14 435.800 - 435.900 CW/SSB, 435.910 FM
RS-15 25 Oct 07:49:59 08:01:12 82° 242° (WSW) 08:12:55 29.354 - 29.394 USB, Beacon 29.352 USB
Saudisat 1A 25 Oct 07:50:12 07:54:34 78° 302° (WNW) 07:59:00 436.775 MHz
SO-67 25 Oct 07:58:14 08:01:42 84° 102° (ESE) 08:05:09 435.3500 MHz FM
AO-7 25 Oct 08:08:56 08:11:25 12° 316° (NW) 08:13:55 29.400 - 29.500 MHz
PANSAT 25 Oct 08:24:04 08:26:13 15° 175° (S) 08:28:22 not established
HO-68 25 Oct 08:31:55 08:36:28 18° 91° (E) 08:40:59 435.675 MHz FM
STRAND 1 25 Oct 08:37:01 08:37:27 10° 271° (W) 08:37:52 ?
Saudisat 1A 25 Oct 09:33:24 09:34:53 11° 321° (NW) 09:36:22 436.775 MHz
MaSat-1 25 Oct 09:37:41 09:40:12 51° 248° (WSW) 09:42:32 437.345 MHz
PANSAT 25 Oct 10:03:42 10:05:40 14° 188° (S) 10:07:39 not established
RS-15 25 Oct 10:05:01 10:11:51 18° 261° (W) 10:18:54 29.354 - 29.394 USB, Beacon 29.352 USB
ZACube-1 25 Oct 10:07:24 10:09:34 14° 91° (E) 10:11:43 437.345 MHz
UKube-1 25 Oct 10:10:11 10:14:18 39° 99° (E) 10:18:23 145.840 MHz, 145.915 MHz
HO-68 25 Oct 10:17:39 10:24:52 80° 288° (WNW) 10:32:03 435.675 MHz FM
FUNcube-1 25 Oct 10:50:30 10:54:33 43° 98° (E) 10:58:31 145.950 - 145.970 MHz USB
Oscar 11 25 Oct 10:51:09 10:55:27 72° 284° (WNW) 10:59:43 145.825 FM, Beacon 2401.500 USB
ISS 25 Oct 11:21:59 11:23:17 12° 128° (SE) 11:24:35 145.800 FM
Sapphire 25 Oct 11:31:18 11:34:06 14° 41° (NE) 11:36:54 437.095 MHz 1200 baud AX-25 AFSK
Oscar 10/S400 25 Oct 11:38:12 11:57:22 24° 152° (SSE) 12:11:28 145.825 - 145.975 CW/USB, Beacon 145.810 USB
ZACube-1 25 Oct 11:42:10 11:46:14 45° 287° (WNW) 11:50:13 437.345 MHz
UKube-1 25 Oct 11:47:11 11:50:10 18° 295° (WNW) 11:53:10 145.840 MHz, 145.915 MHz
PCSat 25 Oct 11:52:57 11:57:02 21° 47° (NE) 12:01:06 145.825 MHz
SO-50 25 Oct 11:54:25 11:57:34 19° 110° (ESE) 12:00:46 436.795 FM
KITSAT 1 25 Oct 11:54:39 12:02:30 58° 113° (ESE) 12:10:22 435.175 FM
HO-68 25 Oct 12:07:33 12:11:27 16° 306° (NW) 12:15:22 435.675 MHz FM
Oscar 16 25 Oct 12:20:40 12:24:00 18° 63° (ENE) 12:27:20 437.025 USB, Beacon 2401.1428
FUNcube-1 25 Oct 12:28:02 12:30:33 16° 295° (WNW) 12:33:03 145.950 - 145.970 MHz USB
Uribyol 2 25 Oct 12:42:54 12:44:53 12° 59° (ENE) 12:46:53 436.500 FM
ITAMSAT 1 25 Oct 12:48:43 12:51:02 13° 60° (ENE) 12:53:21 435.822 SSB
ISS 25 Oct 12:56:14 12:59:33 71° 324° (NW) 13:02:53 145.800 FM
Oscar 19 25 Oct 13:12:01 13:16:59 51° 72° (ENE) 13:21:57 437.125 CW, 437.150 USB
Sapphire 25 Oct 13:12:57 13:18:25 80° 61° (ENE) 13:23:50 437.095 MHz 1200 baud AX-25 AFSK
Gurwin Techsat 1B 25 Oct 13:12:58 13:14:37 11° 59° (ENE) 13:16:16 435.225 FM
UOSAT-12 25 Oct 13:16:33 13:18:08 12° 107° (ESE) 13:19:44 437.025 FM, 437.400 FM
TMSAT-1 25 Oct 13:24:28 13:25:29 11° 58° (ENE) 13:26:30 436.925 FM
JAS-1B 25 Oct 13:29:50 13:35:44 63° 72° (ENE) 13:41:20 435.800 - 435.900 CW/SSB
AO-27 25 Oct 13:31:46 13:36:23 33° 68° (ENE) 13:41:01 436.795 MHz FM
SO-50 25 Oct 13:33:26 13:37:45 45° 307° (NW) 13:42:12 436.795 FM
PCSat 25 Oct 13:35:32 13:40:53 62° 246° (WSW) 13:46:12 145.825 MHz
AO-Echo 25 Oct 13:47:46 13:52:32 56° 73° (ENE) 13:57:29 ?
KITSAT 1 25 Oct 13:51:02 13:58:16 35° 313° (NW) 14:05:32 435.175 FM
Oscar 16 25 Oct 13:57:47 14:02:52 58° 259° (W) 14:07:57 437.025 USB, Beacon 2401.1428
Uribyol 2 25 Oct 14:18:22 14:23:35 87° 256° (WSW) 14:28:51 436.500 FM
ITAMSAT 1 25 Oct 14:24:36 14:29:48 81° 257° (WSW) 14:35:04 435.822 SSB
ISS 25 Oct 14:34:33 14:36:44 16° 342° (NNW) 14:38:54 145.800 FM
Gurwin Techsat 1B 25 Oct 14:48:27 14:53:45 87° 76° (ENE) 14:59:06 435.225 FM
UOSAT-12 25 Oct 14:52:59 14:57:37 75° 303° (WNW) 15:02:20 437.025 FM, 437.400 FM
Oscar 19 25 Oct 14:53:06 14:56:35 18° 267° (W) 15:00:05 437.125 CW, 437.150 USB
Sapphire 25 Oct 14:58:47 15:01:05 13° 258° (WSW) 15:03:24 437.095 MHz 1200 baud AX-25 AFSK
TMSAT-1 25 Oct 14:59:13 15:04:31 81° 75° (ENE) 15:09:51 436.925 FM
AO-27 25 Oct 15:11:22 15:15:52 29° 264° (W) 15:20:24 436.795 MHz FM
AO-7 25 Oct 15:18:15 15:25:52 43° 62° (ENE) 15:33:31 29.400 - 29.500 MHz
JAS-1B 25 Oct 15:23:36 15:26:54 15° 268° (W) 15:30:06 435.800 - 435.900 CW/SSB
AO-Echo 25 Oct 15:28:50 15:31:41 15° 269° (W) 15:34:36 ?
Uosat F 25 Oct 15:34:09 15:38:15 26° 66° (ENE) 15:42:22 435.120 FM
KITSAT 1 25 Oct 15:54:06 15:56:37 12° 340° (NNW) 15:59:08 435.175 FM
JAS-2 25 Oct 16:09:34 16:13:40 19° 57° (ENE) 16:18:05 435.800 - 435.900 CW/SSB, 435.910 FM
ISS 25 Oct 16:13:37 16:14:32 11° 3° (N) 16:15:26 145.800 FM
Saudisat 1A 25 Oct 16:17:36 16:22:01 64° 56° (NE) 16:26:23 436.775 MHz
Gurwin Techsat 1B 25 Oct 16:33:33 16:34:22 10° 272° (W) 16:35:11 435.225 FM
UOSAT-12 25 Oct 16:36:40 16:38:36 12° 322° (NW) 16:40:31 437.025 FM, 437.400 FM
TMSAT-1 25 Oct 16:43:24 16:45:02 11° 271° (W) 16:46:40 436.925 FM
AO-7 25 Oct 17:10:54 17:18:36 42° 260° (W) 17:26:22 29.400 - 29.500 MHz
Uosat F 25 Oct 17:12:16 17:16:51 36° 262° (W) 17:21:28 435.120 FM
OPAL 25 Oct 17:19:10 17:22:58 22° 96° (E) 17:26:44 ?
ISS 25 Oct 17:49:38 17:52:14 21° 23° (NNE) 17:54:49 145.800 FM
Hamsat 25 Oct 17:50:56 17:55:08 80° 77° (ENE) 17:59:20 145.90 MHz
JAS-2 25 Oct 17:51:56 17:57:48 74° 258° (WSW) 18:04:33 435.800 - 435.900 CW/SSB, 435.910 FM
Saudisat 1A 25 Oct 17:59:09 18:01:01 13° 252° (WSW) 18:02:53 436.775 MHz
SO-67 25 Oct 18:30:28 18:33:12 22° 71° (ENE) 18:35:56 435.3500 MHz FM
OPAL 25 Oct 18:57:21 19:01:59 40° 292° (WNW) 19:06:35 ?
HO-68 25 Oct 19:02:06 19:05:21 14° 52° (NE) 19:08:37 435.675 MHz FM
STRAND 1 25 Oct 19:04:24 19:08:57 31° 96° (E) 19:13:27 ?
ISS 25 Oct 19:25:52 19:29:11 66° 220° (SW) 19:32:29 145.800 FM
KITSAT 1 25 Oct 19:49:00 19:55:40 27° 42° (NE) 20:02:17 435.175 FM
SO-67 25 Oct 20:03:42 20:06:07 18° 266° (W) 20:08:33 435.3500 MHz FM
RS-15 25 Oct 20:07:21 20:12:25 14° 97° (E) 20:17:26 29.354 - 29.394 USB, Beacon 29.352 USB
SO-50 25 Oct 20:25:51 20:29:17 19° 43° (NE) 20:32:44 436.795 FM
STRAND 1 25 Oct 20:43:34 20:48:03 31° 292° (WNW) 20:52:31 ?
HO-68 25 Oct 20:44:42 20:51:48 72° 71° (ENE) 20:58:58 435.675 MHz FM
ZACube-1 25 Oct 21:03:49 21:05:44 13° 63° (ENE) 21:07:39 437.345 MHz
UKube-1 25 Oct 21:04:55 21:08:46 32° 69° (ENE) 21:12:38 145.840 MHz, 145.915 MHz
KITSAT 1 25 Oct 21:43:50 21:51:55 79° 243° (WSW) 21:59:58 435.175 FM
Oscar 11 25 Oct 21:45:01 21:49:20 79° 76° (ENE) 21:53:40 145.825 FM, Beacon 2401.500 USB
UOSAT-12 25 Oct 21:45:15 21:47:11 12° 38° (NE) 21:49:06 437.025 FM, 437.400 FM
FUNcube-1 25 Oct 21:45:47 21:49:53 34° 71° (ENE) 21:53:57 145.950 - 145.970 MHz USB
SO-50 25 Oct 22:05:27 22:10:16 65° 241° (WSW) 22:15:06 436.795 FM
RS-15 25 Oct 22:11:45 22:22:42 74° 117° (ESE) 22:33:34 29.354 - 29.394 USB, Beacon 29.352 USB
HO-68 25 Oct 22:35:04 22:40:05 20° 268° (W) 22:45:09 435.675 MHz FM
ZACube-1 25 Oct 22:37:01 22:41:35 67° 259° (W) 22:46:06 437.345 MHz
UKube-1 25 Oct 22:41:37 22:44:58 22° 265° (W) 22:48:22 145.840 MHz, 145.915 MHz
MaSat-1 25 Oct 23:12:35 23:16:30 41° 111° (ESE) 23:20:06 437.345 MHz
FUNcube-1 25 Oct 23:22:43 23:26:17 22° 266° (W) 23:29:50 145.950 - 145.970 MHz USB
UOSAT-12 25 Oct 23:23:26 23:28:10 74° 57° (ENE) 23:32:48 437.025 FM, 437.400 FM
KITSAT 1 25 Oct 23:42:16 23:46:00 14° 261° (W) 23:49:44 435.175 FM
RS-15 26 Oct 00:26:15 00:36:01 36° 321° (NW) 00:45:52 29.354 - 29.394 USB, Beacon 29.352 USB
